Location: Doverdale
(52.2833°N, 2.2000°W)
Time: 02:50:06
(UTC+00:00)

Cosmos 2151 - Pass Details

Date: 29 October 2020
Orbit: 580 x 602 km, 82.5° (Epoch: 27 November)

Event Time Altitude Azimuth Distance (km) Brightness Sun altitude
Rises 19:07:40 0° 349° (N) 2,823 6.7 -22.3°
Reaches altitude 10° 19:09:53 10° 350° (N) 1,916 5.8 -22.7°
Enters shadow 19:14:04 86° 39° (NE) 591 2.8 -23.3°
